This demonstration page uses our WeatherBlox Daily Observations layout. Learn more.

Left ArrowRight Arrow

38.83388, -104.82136

Hourly Observations for January 14, 2021

Temp ( °F °C ) Dew Point ( °F °C ) Humidity (%) Winds ( mph kmh ) Pressure ( in mb ) Visibility ( mi km ) Precip ( " mm )
12:58 am 00:58 Mostly Clear 41 5.2 18 -7.9 39 39 ESE 14 22 29.49 999 10 16 0.00 0.00
12:59 am 00:59 Clear 41 5 18 -8 39 39 SE 13 20 29.49 999 10 16 0.00 0.00
1:58 am 01:58 Clear 40 4.6 10 -12.2 29 29 N 7 11 29.53 1000 10 16 0.00 0.00
2:05 am 02:05 Clear 37 3 18 -8 45 45 NNW 15 24 29.57 1001 10 16 0.00 0.00
2:58 am 02:58 Clear 31 -0.5 9 -12.6 40 40 NNW 10 17 29.63 1003 10 16 0.00 0.00
3:58 am 03:58 Clear 28 -2.3 5 -15.1 37 37 N 9 15 29.69 1005 10 16 0.00 0.00
4:58 am 04:58 Clear 28 -2.4 2 -16.9 32 32 NW 10 17 30.11 1020 10 16 0.00 0.00
5:58 am 05:58 Mostly Clear 25 -3.9 3 -16.2 38 38 NW 10 17 30.18 1022 10 16 0.00 0.00
6:58 am 06:58 Mostly Cloudy 24 -4.4 2 -16.9 37 37 N 9 15 29.80 1009 10 16 0.00 0.00
7:58 am 07:58 Mostly Cloudy 24 -4.2 1 -17.2 36 36 NNW 10 17 29.82 1010 10 16 0.00 0.00
8:58 am 08:58 Partly Cloudy 26 -3.6 2 -16.8 36 36 N 5 7 29.84 1010 10 16 0.00 0.00
11:56 am 11:56 Mostly Cloudy 29 -1.8 0 -17.8 29 29 Calm 29.75 1008 10 16 0.00 0.00
12:56 pm 12:56 Mostly Cloudy 30 -1.3 1 -17.5 28 28 Calm 29.74 1007 10 16 0.00 0.00
1:56 pm 13:56 Mostly Cloudy 30 -1 0 -18 26 26 Calm 29.73 1007 10 16 0.00 0.00
2:58 pm 14:58 Sunny 29 -1.5 0 -17.8 28 28 WNW 5 7 29.80 1009 10 16 0.00 0.00
3:58 pm 15:58 Sunny 28 -2 -2 -19.1 26 26 NW 8 13 29.84 1010 10 16 0.00 0.00
4:58 pm 16:58 Sunny 26 -3.1 1 -17.5 32 32 NW 12 19 29.88 1012 10 16 0.00 0.00
5:58 pm 17:58 Clear 22 -5.4 3 -16.1 43 43 NW 21 33 29.92 1013 10 16 0.00 0.00
6:58 pm 18:58 Clear 21 -5.9 3 -16.1 45 45 NW 17 28 29.95 1014 10 16 0.00 0.00
7:58 pm 19:58 Clear 21 -6.3 3 -16.2 46 46 NNW 14 22 29.97 1015 10 16 0.00 0.00
8:58 pm 20:58 Clear 19 -7.3 5 -15 55 55 N 9 15 29.98 1015 10 16 0.00 0.00
9:58 pm 21:58 Clear 19 -7.3 4 -15.7 51 51 Calm 30.35 1028 10 16 0.00 0.00
10:58 pm 22:58 Clear 18 -7.9 3 -15.9 53 53 WNW 5 7 30.36 1028 10 16 0.00 0.00
11:58 pm 23:58 Clear 18 -7.7 4 -15.4 54 54 NNW 9 15 30.36 1028 10 16 0.00 0.00

Powered by AerisWeather